277P/LINEAR (2020)

Japanese version
Home page
Updated on April 19, 2021

---------------------------------------------------------------------

* Profile

* Pictures

* Orbital Elements

Epoch 2020 Dec. 17.0 TT = JDT 2459200.5
T 2020 Dec. 30.17221 TT                                 Rudenko
q   1.9044914            (2000.0)            P               Q
n   0.13036150     Peri.  152.31730     +0.34421141     -0.89397964
a   3.8521497      Node   276.34468     +0.79923584     +0.43935259
e   0.5056030      Incl.   16.77900     +0.49268711     -0.08814589
P   7.56
From 750 observations 2005 Sept. 15-2021 Jan. 24, mean residual 0".9.

* Finding Charts

* Magnitudes Graph

        m1 = 7.0 + 5 log d + 30.0 log r(t - 50)

---------------------------------------------------------------------

The orbital elements are published on M.P.E.C. 2021-B143.
The charts are made with StellaNavigator Ver.10 (AstroArts).
The magnitudes graphs are made with Comet for Windows.

---------------------------------------------------------------------

Copyright(C) Seiichi Yoshida (comet@aerith.net). All rights reserved.